Starlink 32327

operational
NORAD ID: 61641 Int'l Des: 2024-191 Owner: SPXS Country: US Constellation: starlink
LEOCIRCULAR

Starlink 32327について

説明を読み込み中...

リアルタイム位置

3D地球を読み込み中...

次回通過

高度履歴

Altitude vs Time

uPlot chart will show altitude changes over time

軌道要素

1 61641U 24191W 25259.14187240 .00001222 00000-0 53933-4 0 9999
2 61641 43.0007 60.0687 0001948 282.3765 77.6869 15.27583705 50849
Epoch: Sep 16, 2025 • Age: 10 hours

現在のステータス

高度 487.1 km
速度 7.63 km/s
衛星直下点 41.83°N, 62.69°W
打ち上げ日 Oct 23, 2024
運用期間 0.8 years
タイプ internet

技術仕様

分類 Payload
質量 730.00 kg
乾燥質量 700.00 kg
総質量 730.00 kg
長さ 0.30 m
直径 4.10 m
スパン 29.00 m
形状 Box + pan
製造者 SPXS
バスタイプ Starlink V2M
フェーズステータス In Orbit
所有者/国 SPXS/US

大規模コンステレーション

Loading constellations...